Time,TemperatureF,DewpointF,PressureIn,WindDirection,WindDirectionDegrees,WindSpeedMPH,WindSpeedGustMPH,Humidity,HourlyPrecipIn,Conditions,Clouds,dailyrainin,SoftwareType,DateUTC
2017-02-23 00:01:00,33.5,-21.7,30.24,NW,311,0.0,0.0,8,0.00,RA,OVC,0.00,WeatherDisplay:10.37,2017-02-23 08:01:00,
2017-02-23 00:06:00,33.5,-21.7,30.24,NW,311,0.0,0.0,8,0.00,RA,OVC,0.00,WeatherDisplay:10.37,2017-02-23 08:06:00,
2017-02-23 00:11:00,33.4,-21.8,30.24,NW,311,0.0,0.0,8,0.00,CLR,OVC,0.00,WeatherDisplay:10.37,2017-02-23 08:11:00,
2017-02-23 00:16:00,33.3,-19.6,30.24,NW,311,0.0,0.0,9,0.00,CLR,OVC,0.00,WeatherDisplay:10.37,2017-02-23 08:16:00,
2017-02-23 00:21:00,33.3,-19.6,30.24,NW,311,0.0,0.0,9,0.00,CLR,OVC,0.00,WeatherDisplay:10.37,2017-02-23 08:21:00,
2017-02-23 00:26:00,33.2,-21.9,30.24,NW,311,0.0,0.0,8,0.00,CLR,OVC,0.00,WeatherDisplay:10.37,2017-02-23 08:26:00,
2017-02-23 00:31:00,33.2,-21.9,30.24,SW,222,0.0,0.0,8,0.00,CLR,OVC,0.00,WeatherDisplay:10.37,2017-02-23 08:31:00,
2017-02-23 00:36:00,33.1,-22.0,30.24,South,180,0.0,0.0,8,0.00,CLR,OVC,0.00,WeatherDisplay:10.37,2017-02-23 08:36:00,
2017-02-23 00:41:00,33.1,-22.0,30.24,South,180,0.0,0.0,8,0.00,CLR,OVC,0.00,WeatherDisplay:10.37,2017-02-23 08:41:00,
2017-02-23 00:46:00,33.1,-24.6,30.24,South,180,0.0,0.0,7,0.00,CLR,OVC,0.00,WeatherDisplay:10.37,2017-02-23 08:46:00,
2017-02-23 00:51:00,33.0,-24.6,30.24,South,180,0.0,0.0,7,0.00,CLR,OVC,0.00,WeatherDisplay:10.37,2017-02-23 08:51:00,
2017-02-23 00:56:00,33.0,-27.5,30.24,South,180,0.0,0.0,6,0.00,CLR,OVC,0.00,WeatherDisplay:10.37,2017-02-23 08:56:00,
2017-02-23 01:01:00,33.0,-27.5,30.24,South,180,0.0,0.0,6,0.00,CLR,OVC,0.00,WeatherDisplay:10.37,2017-02-23 09:01:00,
2017-02-23 01:06:00,33.0,-30.9,30.24,South,180,0.0,0.0,5,0.00,CLR,OVC,0.00,WeatherDisplay:10.37,2017-02-23 09:06:00,
2017-02-23 01:11:00,32.9,-30.9,30.24,South,180,0.0,0.0,5,0.00,CLR,OVC,0.00,WeatherDisplay:10.37,2017-02-23 09:11:00,
2017-02-23 01:16:00,32.9,-30.9,30.24,South,180,0.0,0.0,5,0.00,CLR,OVC,0.00,WeatherDisplay:10.37,2017-02-23 09:16:00,
2017-02-23 01:21:00,32.9,-35.0,30.24,South,180,0.0,0.0,4,0.00,CLR,OVC,0.00,WeatherDisplay:10.37,2017-02-23 09:21:00,
2017-02-23 01:26:00,32.9,-35.0,30.24,South,180,0.0,0.0,4,0.00,CLR,OVC,0.00,WeatherDisplay:10.37,2017-02-23 09:26:00,
2017-02-23 01:31:00,32.8,-35.0,30.24,South,180,0.0,0.0,4,0.00,CLR,OVC,0.00,WeatherDisplay:10.37,2017-02-23 09:31:00,
2017-02-23 01:36:00,32.8,-40.1,30.24,South,180,0.0,0.0,3,0.00,CLR,OVC,0.00,WeatherDisplay:10.37,2017-02-23 09:36:00,
2017-02-23 01:41:00,32.8,-40.1,30.24,South,180,0.0,0.0,3,0.00,CLR,OVC,0.00,WeatherDisplay:10.37,2017-02-23 09:41:00,
2017-02-23 01:46:00,32.8,-40.1,30.24,South,180,0.0,0.0,3,0.00,CLR,OVC,0.00,WeatherDisplay:10.37,2017-02-23 09:46:00,
2017-02-23 01:51:00,32.8,-40.1,30.24,South,180,0.0,0.0,3,0.00,CLR,OVC,0.00,WeatherDisplay:10.37,2017-02-23 09:51:00,
2017-02-23 01:56:00,32.8,-40.1,30.24,South,180,0.0,0.0,3,0.00,CLR,OVC,0.00,WeatherDisplay:10.37,2017-02-23 09:56:00,
2017-02-23 02:01:00,32.9,-40.0,30.24,South,180,0.0,0.0,3,0.00,CLR,OVC,0.00,WeatherDisplay:10.37,2017-02-23 10:01:00,
2017-02-23 02:06:00,33.0,-40.0,30.24,South,180,0.0,0.0,3,0.00,CLR,OVC,0.00,WeatherDisplay:10.37,2017-02-23 10:06:00,
2017-02-23 02:11:00,33.0,-39.9,30.24,South,180,0.0,0.0,3,0.00,CLR,OVC,0.00,WeatherDisplay:10.37,2017-02-23 10:11:00,
2017-02-23 02:16:00,33.2,-39.8,30.24,South,180,0.0,0.0,3,0.00,CLR,OVC,0.00,WeatherDisplay:10.37,2017-02-23 10:16:00,
2017-02-23 02:21:00,33.2,-39.8,30.24,South,180,0.0,2.0,3,0.00,CLR,OVC,0.00,WeatherDisplay:10.37,2017-02-23 10:21:00,
2017-02-23 02:26:00,33.3,-39.7,30.24,South,180,0.0,0.0,3,0.00,CLR,OVC,0.00,WeatherDisplay:10.37,2017-02-23 10:26:00,
2017-02-23 02:31:00,33.3,-39.7,30.24,South,180,0.0,0.0,3,0.00,CLR,OVC,0.00,WeatherDisplay:10.37,2017-02-23 10:31:00,
2017-02-23 02:36:00,33.3,-39.7,30.24,South,180,0.0,0.0,3,0.00,CLR,OVC,0.00,WeatherDisplay:10.37,2017-02-23 10:36:00,
2017-02-23 02:41:00,33.3,-39.7,30.24,South,180,0.0,0.0,3,0.00,CLR,OVC,0.00,WeatherDisplay:10.37,2017-02-23 10:41:00,
2017-02-23 02:46:00,33.2,-39.8,30.24,South,180,0.0,0.0,3,0.00,CLR,OVC,0.00,WeatherDisplay:10.37,2017-02-23 10:46:00,
2017-02-23 02:51:00,33.2,-39.8,30.24,South,180,0.0,0.0,3,0.00,CLR,OVC,0.00,WeatherDisplay:10.37,2017-02-23 10:51:00,
2017-02-23 02:56:00,33.1,-39.9,30.24,South,180,0.0,0.0,3,0.00,CLR,OVC,0.00,WeatherDisplay:10.37,2017-02-23 10:56:00,
2017-02-23 03:01:00,33.0,-39.9,30.24,South,180,0.0,0.0,3,0.00,CLR,OVC,0.00,WeatherDisplay:10.37,2017-02-23 11:01:00,
2017-02-23 03:06:00,33.0,-39.9,30.24,South,180,0.0,0.0,3,0.00,CLR,OVC,0.00,WeatherDisplay:10.37,2017-02-23 11:06:00,
2017-02-23 03:11:00,33.0,-40.0,30.24,South,180,0.0,0.0,3,0.00,CLR,OVC,0.00,WeatherDisplay:10.37,2017-02-23 11:11:00,
2017-02-23 03:16:00,32.9,-40.0,30.24,South,180,0.0,0.0,3,0.00,CLR,OVC,0.00,WeatherDisplay:10.37,2017-02-23 11:16:00,
2017-02-23 03:21:00,32.9,-40.0,30.24,South,180,0.0,0.0,3,0.00,CLR,OVC,0.00,WeatherDisplay:10.37,2017-02-23 11:21:00,
2017-02-23 03:26:00,32.8,-40.1,30.24,South,180,0.0,0.0,3,0.00,CLR,OVC,0.00,WeatherDisplay:10.37,2017-02-23 11:26:00,
2017-02-23 03:31:00,32.7,-40.1,30.24,South,180,0.0,0.0,3,0.00,CLR,OVC,0.00,WeatherDisplay:10.37,2017-02-23 11:31:00,
2017-02-23 03:36:00,32.8,-40.1,30.24,South,180,0.0,0.0,3,0.00,CLR,OVC,0.00,WeatherDisplay:10.37,2017-02-23 11:36:00,
2017-02-23 03:41:00,32.8,-40.1,30.24,South,180,0.0,0.0,3,0.00,CLR,OVC,0.00,WeatherDisplay:10.37,2017-02-23 11:41:00,
2017-02-23 03:46:00,32.6,-40.2,30.24,South,180,0.0,0.0,3,0.00,CLR,OVC,0.00,WeatherDisplay:10.37,2017-02-23 11:46:00,
2017-02-23 03:51:00,32.5,-40.3,30.24,South,180,0.0,0.0,3,0.00,CLR,OVC,0.00,WeatherDisplay:10.37,2017-02-23 11:51:00,
2017-02-23 03:56:00,32.4,-40.4,30.24,South,180,0.0,0.0,3,0.00,CLR,OVC,0.00,WeatherDisplay:10.37,2017-02-23 11:56:00,
2017-02-23 04:01:00,32.1,-40.6,30.24,South,180,0.0,0.0,3,0.00,CLR,OVC,0.00,WeatherDisplay:10.37,2017-02-23 12:01:00,
2017-02-23 04:06:00,32.0,-40.6,30.24,South,180,0.0,0.0,3,0.00,CLR,OVC,0.00,WeatherDisplay:10.37,2017-02-23 12:06:00,
2017-02-23 04:11:00,31.9,-40.7,30.24,South,180,0.0,0.0,3,0.00,CLR,OVC,0.00,WeatherDisplay:10.37,2017-02-23 12:11:00,
2017-02-23 04:16:00,31.8,-40.8,30.24,South,180,0.0,0.0,3,0.00,CLR,OVC,0.00,WeatherDisplay:10.37,2017-02-23 12:16:00,
2017-02-23 04:21:00,31.7,-40.8,30.24,South,180,0.0,0.0,3,0.00,CLR,OVC,0.00,WeatherDisplay:10.37,2017-02-23 12:21:00,
2017-02-23 04:26:00,31.5,-41.0,30.25,South,180,0.0,0.0,3,0.00,CLR,OVC,0.00,WeatherDisplay:10.37,2017-02-23 12:26:00,
2017-02-23 04:31:00,31.4,-41.1,30.25,South,180,0.0,0.0,3,0.00,CLR,OVC,0.00,WeatherDisplay:10.37,2017-02-23 12:31:00,
2017-02-23 04:36:00,31.4,-41.1,30.25,South,180,0.0,0.0,3,0.00,CLR,OVC,0.00,WeatherDisplay:10.37,2017-02-23 12:36:00,
2017-02-23 04:41:00,31.4,-41.0,30.24,South,180,0.0,0.0,3,0.00,CLR,OVC,0.00,WeatherDisplay:10.37,2017-02-23 12:41:00,
2017-02-23 04:46:00,31.6,-40.9,30.25,SSW,204,1.0,1.0,3,0.00,CLR,OVC,0.00,WeatherDisplay:10.37,2017-02-23 12:46:00,
2017-02-23 04:51:00,31.6,-40.9,30.25,SW,216,0.0,0.0,3,0.00,CLR,OVC,0.00,WeatherDisplay:10.37,2017-02-23 12:51:00,
2017-02-23 04:56:00,31.4,-41.1,30.25,SW,216,0.0,0.0,3,0.00,CLR,OVC,0.00,WeatherDisplay:10.37,2017-02-23 12:56:00,
2017-02-23 05:01:00,31.2,-41.2,30.25,SW,216,0.0,0.0,3,0.00,CLR,OVC,0.00,WeatherDisplay:10.37,2017-02-23 13:01:00,
2017-02-23 05:06:00,31.1,-41.2,30.25,SW,216,0.0,0.0,3,0.00,CLR,OVC,0.00,WeatherDisplay:10.37,2017-02-23 13:06:00,
2017-02-23 05:11:00,31.1,-41.3,30.25,SW,216,0.0,0.0,3,0.00,CLR,OVC,0.00,WeatherDisplay:10.37,2017-02-23 13:11:00,
2017-02-23 05:16:00,30.8,-41.5,30.25,SW,216,0.0,0.0,3,0.00,CLR,OVC,0.00,WeatherDisplay:10.37,2017-02-23 13:16:00,
2017-02-23 05:21:00,30.8,-41.5,30.25,SW,216,0.0,0.0,3,0.00,CLR,OVC,0.00,WeatherDisplay:10.37,2017-02-23 13:21:00,
2017-02-23 05:26:00,30.8,-41.5,30.25,SW,216,0.0,0.0,3,0.00,CLR,OVC,0.00,WeatherDisplay:10.37,2017-02-23 13:26:00,
2017-02-23 05:31:00,30.8,-41.5,30.25,SW,216,0.0,0.0,3,0.00,CLR,OVC,0.00,WeatherDisplay:10.37,2017-02-23 13:31:00,
2017-02-23 05:36:00,31.0,-41.3,30.25,SW,216,0.0,0.0,3,0.00,CLR,OVC,0.00,WeatherDisplay:10.37,2017-02-23 13:36:00,
2017-02-23 05:41:00,31.1,-41.3,30.25,SW,216,0.0,0.0,3,0.00,CLR,OVC,0.00,WeatherDisplay:10.37,2017-02-23 13:41:00,
2017-02-23 05:46:00,31.2,-41.2,30.25,SW,216,0.0,0.0,3,0.00,CLR,OVC,0.00,WeatherDisplay:10.37,2017-02-23 13:46:00,
2017-02-23 05:51:00,31.2,-41.2,30.25,SW,216,0.0,0.0,3,0.00,CLR,OVC,0.00,WeatherDisplay:10.37,2017-02-23 13:51:00,
2017-02-23 05:56:00,31.4,-41.1,30.25,SW,216,0.0,0.0,3,0.00,CLR,OVC,0.00,WeatherDisplay:10.37,2017-02-23 13:56:00,
2017-02-23 06:01:00,31.5,-41.0,30.25,SW,216,0.0,0.0,3,0.00,CLR,OVC,0.00,WeatherDisplay:10.37,2017-02-23 14:01:00,
2017-02-23 06:06:00,31.5,-41.0,30.25,SW,216,0.0,0.0,3,0.00,CLR,OVC,0.00,WeatherDisplay:10.37,2017-02-23 14:06:00,
2017-02-23 06:11:00,31.6,-40.9,30.25,SW,216,0.0,0.0,3,0.00,CLR,OVC,0.00,WeatherDisplay:10.37,2017-02-23 14:11:00,
2017-02-23 06:16:00,31.6,-40.9,30.25,SW,216,0.0,0.0,3,0.00,CLR,OVC,0.00,WeatherDisplay:10.37,2017-02-23 14:16:00,
2017-02-23 06:21:00,31.7,-40.8,30.25,SW,216,0.0,0.0,3,0.00,CLR,OVC,0.00,WeatherDisplay:10.37,2017-02-23 14:21:00,
2017-02-23 06:26:00,31.8,-40.8,30.25,SW,216,0.0,0.0,3,0.00,CLR,OVC,0.00,WeatherDisplay:10.37,2017-02-23 14:26:00,
2017-02-23 06:31:00,31.9,-40.7,30.25,SW,216,0.0,0.0,3,0.00,CLR,OVC,0.00,WeatherDisplay:10.37,2017-02-23 14:31:00,
2017-02-23 06:36:00,31.9,-40.7,30.25,SW,216,0.0,0.0,3,0.00,CLR,OVC,0.00,WeatherDisplay:10.37,2017-02-23 14:36:00,
2017-02-23 06:41:00,31.9,-40.7,30.25,SW,216,0.0,0.0,3,0.00,CLR,OVC,0.00,WeatherDisplay:10.37,2017-02-23 14:41:00,
2017-02-23 06:46:00,32.0,-40.6,30.25,SW,216,0.0,0.0,3,0.00,CLR,OVC,0.00,WeatherDisplay:10.37,2017-02-23 14:46:00,
2017-02-23 06:51:00,32.0,-40.6,30.26,SW,216,0.0,0.0,3,0.00,CLR,OVC,0.00,WeatherDisplay:10.37,2017-02-23 14:51:00,
2017-02-23 06:56:00,32.0,-40.6,30.26,SW,216,0.0,0.0,3,0.00,CLR,OVC,0.00,WeatherDisplay:10.37,2017-02-23 14:56:00,
2017-02-23 07:01:00,32.1,-40.6,30.26,SW,216,0.0,0.0,3,0.00,CLR,OVC,0.00,WeatherDisplay:10.37,2017-02-23 15:01:00,
2017-02-23 07:06:00,32.1,-40.6,30.26,SW,216,0.0,0.0,3,0.00,CLR,OVC,0.00,WeatherDisplay:10.37,2017-02-23 15:06:00,
2017-02-23 07:11:00,32.1,-40.6,30.27,SW,216,0.0,0.0,3,0.00,CLR,OVC,0.00,WeatherDisplay:10.37,2017-02-23 15:11:00,
2017-02-23 07:16:00,32.1,-40.5,30.27,SW,216,0.0,0.0,3,0.00,CLR,OVC,0.00,WeatherDisplay:10.37,2017-02-23 15:16:00,
2017-02-23 07:21:00,32.2,-40.5,30.27,SW,216,0.0,0.0,3,0.00,CLR,OVC,0.00,WeatherDisplay:10.37,2017-02-23 15:21:00,
2017-02-23 07:26:00,32.3,-40.4,30.27,SW,216,0.0,0.0,3,0.00,CLR,OVC,0.00,WeatherDisplay:10.37,2017-02-23 15:26:00,
2017-02-23 07:31:00,32.3,-40.4,30.27,SW,216,0.0,0.0,3,0.00,CLR,OVC,0.00,WeatherDisplay:10.37,2017-02-23 15:31:00,
2017-02-23 07:36:00,32.4,-40.4,30.27,SW,216,0.0,0.0,3,0.00,CLR,OVC,0.00,WeatherDisplay:10.37,2017-02-23 15:36:00,
2017-02-23 07:41:00,32.4,-40.4,30.27,SW,216,0.0,0.0,3,0.00,CLR,OVC,0.00,WeatherDisplay:10.37,2017-02-23 15:41:00,
2017-02-23 07:46:00,32.5,-40.3,30.27,SW,216,0.0,0.0,3,0.00,CLR,OVC,0.00,WeatherDisplay:10.37,2017-02-23 15:46:00,
2017-02-23 07:51:00,32.6,-40.2,30.28,SW,216,0.0,0.0,3,0.00,CLR,OVC,0.00,WeatherDisplay:10.37,2017-02-23 15:51:00,
2017-02-23 07:56:00,32.6,-40.2,30.28,SW,216,0.0,0.0,3,0.00,CLR,OVC,0.00,WeatherDisplay:10.37,2017-02-23 15:56:00,
2017-02-23 08:01:00,32.7,-40.1,30.28,SW,216,0.0,0.0,3,0.00,CLR,OVC,0.00,WeatherDisplay:10.37,2017-02-23 16:01:00,
2017-02-23 08:06:00,32.8,-40.1,30.28,SW,216,0.0,0.0,3,0.00,CLR,OVC,0.00,WeatherDisplay:10.37,2017-02-23 16:06:00,
2017-02-23 08:11:00,32.8,-40.1,30.28,SW,216,0.0,3.0,3,0.00,CLR,OVC,0.00,WeatherDisplay:10.37,2017-02-23 16:11:00,
2017-02-23 08:16:00,32.9,-40.0,30.28,SW,216,0.0,0.0,3,0.00,CLR,OVC,0.00,WeatherDisplay:10.37,2017-02-23 16:16:00,
2017-02-23 08:21:00,33.0,-39.9,30.28,SW,216,0.0,0.0,3,0.00,CLR,OVC,0.00,WeatherDisplay:10.37,2017-02-23 16:21:00,
2017-02-23 08:26:00,33.2,-39.8,30.28,SW,216,0.0,0.0,3,0.00,CLR,OVC,0.00,WeatherDisplay:10.37,2017-02-23 16:26:00,
2017-02-23 08:31:00,33.2,-39.8,30.28,SW,216,0.0,0.0,3,0.00,CLR,OVC,0.00,WeatherDisplay:10.37,2017-02-23 16:31:00,
2017-02-23 08:36:00,33.3,-39.7,30.28,SW,216,0.0,0.0,3,0.00,CLR,OVC,0.00,WeatherDisplay:10.37,2017-02-23 16:36:00,
2017-02-23 08:41:00,33.4,-39.7,30.28,SW,216,0.0,0.0,3,0.00,CLR,OVC,0.00,WeatherDisplay:10.37,2017-02-23 16:41:00,
2017-02-23 08:46:00,33.4,-39.7,30.28,SW,216,0.0,1.0,3,0.00,CLR,OVC,0.00,WeatherDisplay:10.37,2017-02-23 16:46:00,
2017-02-23 08:51:00,33.4,-39.7,30.28,SW,216,0.0,0.0,3,0.00,CLR,OVC,0.00,WeatherDisplay:10.37,2017-02-23 16:51:00,
2017-02-23 08:56:00,33.5,-39.6,30.28,SW,216,0.0,0.0,3,0.00,CLR,OVC,0.00,WeatherDisplay:10.37,2017-02-23 16:56:00,
2017-02-23 09:01:00,33.5,-39.6,30.28,SW,216,0.0,0.0,3,0.00,CLR,OVC,0.00,WeatherDisplay:10.37,2017-02-23 17:01:00,
2017-02-23 09:06:00,33.5,-39.6,30.28,SW,216,0.0,0.0,3,0.00,CLR,OVC,0.00,WeatherDisplay:10.37,2017-02-23 17:06:00,
2017-02-23 09:11:00,33.6,-39.5,30.28,SW,216,0.0,0.0,3,0.00,CLR,OVC,0.00,WeatherDisplay:10.37,2017-02-23 17:11:00,
2017-02-23 09:16:00,33.6,-39.5,30.29,SW,216,0.0,1.0,3,0.00,CLR,OVC,0.00,WeatherDisplay:10.37,2017-02-23 17:16:00,
2017-02-23 09:21:00,33.7,-39.5,30.29,SW,216,0.0,0.0,3,0.00,CLR,OVC,0.00,WeatherDisplay:10.37,2017-02-23 17:21:00,
2017-02-23 09:26:00,33.9,-39.3,30.29,SW,216,0.0,0.0,3,0.00,CLR,OVC,0.00,WeatherDisplay:10.37,2017-02-23 17:26:00,
2017-02-23 09:31:00,34.1,-39.2,30.29,SW,216,0.0,0.0,3,0.00,CLR,OVC,0.00,WeatherDisplay:10.37,2017-02-23 17:31:00,
2017-02-23 09:36:00,34.2,-39.1,30.29,SW,216,0.0,0.0,3,0.00,CLR,OVC,0.00,WeatherDisplay:10.37,2017-02-23 17:36:00,
2017-02-23 09:41:00,34.5,-38.9,30.29,SW,216,0.0,0.0,3,0.00,CLR,OVC,0.00,WeatherDisplay:10.37,2017-02-23 17:41:00,
2017-02-23 09:46:00,34.6,-38.8,30.29,SW,216,0.0,0.0,3,0.00,CLR,OVC,0.00,WeatherDisplay:10.37,2017-02-23 17:46:00,
2017-02-23 09:51:00,34.7,-38.8,30.29,SW,216,0.0,0.0,3,0.00,CLR,OVC,0.00,WeatherDisplay:10.37,2017-02-23 17:51:00,
2017-02-23 09:56:00,34.7,-38.7,30.29,SW,216,0.0,0.0,3,0.00,CLR,OVC,0.00,WeatherDisplay:10.37,2017-02-23 17:56:00,
2017-02-23 10:01:00,34.8,-38.7,30.29,SW,216,0.0,0.0,3,0.00,CLR,OVC,0.00,WeatherDisplay:10.37,2017-02-23 18:01:00,
2017-02-23 10:06:00,34.9,-38.6,30.29,SW,216,0.0,0.0,3,0.00,CLR,OVC,0.00,WeatherDisplay:10.37,2017-02-23 18:06:00,
2017-02-23 10:11:00,34.9,-38.6,30.29,SW,216,0.0,0.0,3,0.00,CLR,OVC,0.00,WeatherDisplay:10.37,2017-02-23 18:11:00,
2017-02-23 10:16:00,35.0,-38.6,30.29,SW,216,0.0,0.0,3,0.00,CLR,OVC,0.00,WeatherDisplay:10.37,2017-02-23 18:16:00,
2017-02-23 10:21:00,35.1,-38.5,30.29,SW,216,0.0,0.0,3,0.00,CLR,OVC,0.00,WeatherDisplay:10.37,2017-02-23 18:21:00,
2017-02-23 10:26:00,35.2,-38.4,30.30,WSW,253,0.0,0.0,3,0.00,CLR,OVC,0.00,WeatherDisplay:10.37,2017-02-23 18:26:00,
2017-02-23 10:31:00,35.2,-38.4,30.30,North,1,2.0,3.0,3,0.00,CLR,OVC,0.00,WeatherDisplay:10.37,2017-02-23 18:31:00,
2017-02-23 10:36:00,35.2,-38.4,30.30,NNE,29,0.0,0.0,3,0.00,CLR,OVC,0.00,WeatherDisplay:10.37,2017-02-23 18:36:00,
2017-02-23 10:41:00,35.3,-38.3,30.30,NNE,24,0.0,0.0,3,0.00,CLR,OVC,0.00,WeatherDisplay:10.37,2017-02-23 18:41:00,
2017-02-23 10:46:00,35.4,-38.3,30.29,NNE,20,0.0,1.0,3,0.00,CLR,OVC,0.00,WeatherDisplay:10.37,2017-02-23 18:46:00,
2017-02-23 10:51:00,35.5,-38.2,30.29,NNE,24,0.0,0.0,3,0.00,CLR,OVC,0.00,WeatherDisplay:10.37,2017-02-23 18:51:00,
2017-02-23 10:56:00,35.6,-38.1,30.29,NNE,28,1.0,2.0,3,0.00,CLR,OVC,0.00,WeatherDisplay:10.37,2017-02-23 18:56:00,
2017-02-23 11:01:00,35.7,-38.1,30.29,NNE,31,0.0,4.0,3,0.00,CLR,OVC,0.00,WeatherDisplay:10.37,2017-02-23 19:01:00,
2017-02-23 11:06:00,35.9,-37.9,30.29,NNE,24,1.0,1.0,3,0.00,CLR,OVC,0.00,WeatherDisplay:10.37,2017-02-23 19:06:00,
2017-02-23 11:11:00,36.2,-37.7,30.29,NNE,19,0.0,2.0,3,0.00,CLR,OVC,0.00,WeatherDisplay:10.37,2017-02-23 19:11:00,
2017-02-23 11:16:00,36.4,-37.6,30.29,NNE,20,0.0,2.0,3,0.00,CLR,OVC,0.00,WeatherDisplay:10.37,2017-02-23 19:16:00,
2017-02-23 11:21:00,36.6,-37.4,30.29,NNE,29,2.0,2.0,3,0.00,CLR,OVC,0.00,WeatherDisplay:10.37,2017-02-23 19:21:00,
2017-02-23 11:26:00,36.8,-37.3,30.29,NNE,33,0.0,0.0,3,0.00,CLR,OVC,0.00,WeatherDisplay:10.37,2017-02-23 19:26:00,
2017-02-23 11:31:00,37.0,-37.2,30.29,NNE,29,0.0,1.0,3,0.00,CLR,OVC,0.00,WeatherDisplay:10.37,2017-02-23 19:31:00,
2017-02-23 11:36:00,37.2,-37.0,30.29,North,11,0.0,0.0,3,0.00,CLR,OVC,0.00,WeatherDisplay:10.37,2017-02-23 19:36:00,
2017-02-23 11:41:00,37.3,-37.0,30.29,NW,318,1.0,3.0,3,0.00,CLR,OVC,0.00,WeatherDisplay:10.37,2017-02-23 19:41:00,
2017-02-23 11:46:00,37.5,-36.8,30.29,SW,231,1.0,3.0,3,0.00,CLR,OVC,0.00,WeatherDisplay:10.37,2017-02-23 19:46:00,
2017-02-23 11:51:00,38.0,-36.5,30.28,SW,215,0.0,0.0,3,0.00,CLR,OVC,0.00,WeatherDisplay:10.37,2017-02-23 19:51:00,
2017-02-23 11:56:00,38.2,-36.3,30.28,South,174,0.0,0.0,3,0.00,CLR,OVC,0.00,WeatherDisplay:10.37,2017-02-23 19:56:00,
2017-02-23 12:01:00,38.6,-36.1,30.28,NNW,342,0.0,0.0,3,0.00,CLR,OVC,0.00,WeatherDisplay:10.37,2017-02-23 20:01:00,
2017-02-23 12:06:00,38.9,-1.1,30.28,North,349,0.0,3.0,18,0.00,CLR,OVC,0.00,WeatherDisplay:10.37,2017-02-23 20:06:00,
2017-02-23 12:11:00,38.9,16.6,30.28,North,350,0.0,1.0,40,0.00,CLR,OVC,0.00,WeatherDisplay:10.37,2017-02-23 20:11:00,
2017-02-23 12:16:00,39.1,19.0,30.28,West,270,1.0,3.0,44,0.00,CLR,OVC,0.00,WeatherDisplay:10.37,2017-02-23 20:16:00,
2017-02-23 12:21:00,39.3,22.2,30.28,WNW,282,0.0,0.0,50,0.00,CLR,OVC,0.00,WeatherDisplay:10.37,2017-02-23 20:21:00,
2017-02-23 12:26:00,39.6,26.4,30.28,NW,326,2.0,4.0,59,0.00,CLR,OVC,0.00,WeatherDisplay:10.37,2017-02-23 20:26:00,
2017-02-23 12:31:00,39.9,30.2,30.28,NNE,22,1.0,5.0,68,0.00,CLR,OVC,0.00,WeatherDisplay:10.37,2017-02-23 20:31:00,
2017-02-23 12:36:00,40.0,33.3,30.28,NNE,18,1.0,3.0,77,0.00,CLR,OVC,0.00,WeatherDisplay:10.37,2017-02-23 20:36:00,
2017-02-23 12:41:00,39.8,34.1,30.28,North,7,0.0,2.0,80,0.00,CLR,OVC,0.00,WeatherDisplay:10.37,2017-02-23 20:41:00,
2017-02-23 12:46:00,40.1,34.4,30.27,NNW,348,0.0,2.0,80,0.00,CLR,OVC,0.00,WeatherDisplay:10.37,2017-02-23 20:46:00,
2017-02-23 12:51:00,40.8,35.7,30.27,NNE,14,2.0,4.0,82,0.00,CLR,OVC,0.00,WeatherDisplay:10.37,2017-02-23 20:51:00,
2017-02-23 12:56:00,41.2,36.4,30.27,North,11,2.0,3.0,83,0.00,CLR,OVC,0.00,WeatherDisplay:10.37,2017-02-23 20:56:00,
2017-02-23 13:01:00,41.6,36.5,30.27,NNE,16,0.0,1.0,82,0.00,CLR,OVC,0.00,WeatherDisplay:10.37,2017-02-23 21:01:00,
2017-02-23 13:06:00,42.4,36.9,30.27,NNE,13,1.0,4.0,81,0.00,CLR,OVC,0.00,WeatherDisplay:10.37,2017-02-23 21:06:00,
2017-02-23 13:11:00,43.1,37.6,30.27,North,9,1.0,5.0,81,0.00,CLR,OVC,0.00,WeatherDisplay:10.37,2017-02-23 21:11:00,
2017-02-23 13:16:00,43.4,37.3,30.27,NNE,12,3.0,5.0,79,0.00,RA,OVC,0.01,WeatherDisplay:10.37,2017-02-23 21:16:00,
2017-02-23 13:21:00,43.4,37.3,30.27,North,11,0.0,1.0,79,0.00,RA,OVC,0.01,WeatherDisplay:10.37,2017-02-23 21:21:00,
2017-02-23 13:26:00,43.0,36.6,30.27,North,358,0.0,2.0,78,0.00,,OVC,0.01,WeatherDisplay:10.37,2017-02-23 21:26:00,
2017-02-23 13:31:00,42.9,36.5,30.27,WNW,292,1.0,3.0,78,0.00,,OVC,0.01,WeatherDisplay:10.37,2017-02-23 21:31:00,
2017-02-23 13:36:00,42.7,36.3,30.27,West,274,0.0,1.0,78,0.00,,OVC,0.01,WeatherDisplay:10.37,2017-02-23 21:36:00,
2017-02-23 13:41:00,42.3,36.0,30.27,NW,315,1.0,2.0,78,0.00,,OVC,0.01,WeatherDisplay:10.37,2017-02-23 21:41:00,
2017-02-23 13:46:00,42.0,36.3,30.27,NW,318,0.0,1.0,80,0.00,,OVC,0.01,WeatherDisplay:10.37,2017-02-23 21:46:00,
2017-02-23 13:51:00,41.7,36.3,30.27,NNW,330,0.0,0.0,81,0.00,,OVC,0.01,WeatherDisplay:10.37,2017-02-23 21:51:00,
2017-02-23 13:56:00,41.5,36.7,30.27,NNW,348,0.0,2.0,83,0.00,,OVC,0.01,WeatherDisplay:10.37,2017-02-23 21:56:00,
2017-02-23 14:01:00,40.7,35.3,30.27,West,276,0.0,1.0,81,0.00,,OVC,0.01,WeatherDisplay:10.37,2017-02-23 22:01:00,
2017-02-23 14:06:00,40.3,35.5,30.26,WSW,245,0.0,0.0,83,0.00,,OVC,0.01,WeatherDisplay:10.37,2017-02-23 22:06:00,
2017-02-23 14:11:00,40.1,35.4,30.26,WSW,251,0.0,0.0,83,0.00,,OVC,0.01,WeatherDisplay:10.37,2017-02-23 22:11:00,
2017-02-23 14:16:00,40.0,35.3,30.26,West,267,0.0,0.0,83,0.00,CLR,OVC,0.01,WeatherDisplay:10.37,2017-02-23 22:16:00,
2017-02-23 14:21:00,39.7,35.0,30.26,West,276,0.0,0.0,83,0.00,CLR,OVC,0.01,WeatherDisplay:10.37,2017-02-23 22:21:00,
2017-02-23 14:26:00,39.6,34.9,30.26,West,276,0.0,0.0,83,0.00,CLR,OVC,0.01,WeatherDisplay:10.37,2017-02-23 22:26:00,
2017-02-23 14:31:00,39.5,34.8,30.26,WSW,250,0.0,1.0,83,0.00,CLR,OVC,0.01,WeatherDisplay:10.37,2017-02-23 22:31:00,
2017-02-23 14:36:00,39.3,34.6,30.26,SW,216,0.0,2.0,83,0.00,CLR,OVC,0.01,WeatherDisplay:10.37,2017-02-23 22:36:00,
2017-02-23 14:41:00,39.1,34.7,30.26,SSW,212,1.0,2.0,84,0.00,CLR,OVC,0.01,WeatherDisplay:10.37,2017-02-23 22:41:00,
2017-02-23 14:46:00,38.9,34.2,30.26,SW,221,1.0,3.0,83,0.00,CLR,OVC,0.01,WeatherDisplay:10.37,2017-02-23 22:46:00,
2017-02-23 14:51:00,39.0,34.0,30.25,SW,228,1.0,4.0,82,0.00,CLR,OVC,0.01,WeatherDisplay:10.37,2017-02-23 22:51:00,
2017-02-23 14:56:00,39.6,34.2,30.25,SW,227,1.0,4.0,81,0.00,CLR,OVC,0.01,WeatherDisplay:10.37,2017-02-23 22:56:00,
2017-02-23 15:01:00,39.8,34.2,30.25,SW,227,0.0,2.0,80,0.00,CLR,OVC,0.01,WeatherDisplay:10.37,2017-02-23 23:01:00,
2017-02-23 15:06:00,40.0,34.6,30.25,SW,228,0.0,0.0,81,0.00,CLR,OVC,0.01,WeatherDisplay:10.37,2017-02-23 23:06:00,
2017-02-23 15:11:00,40.0,34.6,30.25,SW,228,0.0,1.0,81,0.00,CLR,OVC,0.01,WeatherDisplay:10.37,2017-02-23 23:11:00,
2017-02-23 15:16:00,39.9,34.9,30.25,SW,228,0.0,0.0,82,0.00,CLR,OVC,0.01,WeatherDisplay:10.37,2017-02-23 23:16:00,
2017-02-23 15:21:00,39.9,35.1,30.24,SW,228,0.0,0.0,83,0.00,CLR,OVC,0.01,WeatherDisplay:10.37,2017-02-23 23:21:00,
2017-02-23 15:26:00,39.7,34.6,30.24,SW,228,0.0,0.0,82,0.00,CLR,OVC,0.01,WeatherDisplay:10.37,2017-02-23 23:26:00,
2017-02-23 15:31:00,39.5,33.8,30.24,SW,228,0.0,0.0,80,0.00,CLR,OVC,0.01,WeatherDisplay:10.37,2017-02-23 23:31:00,
2017-02-23 15:36:00,39.6,34.8,30.24,SW,228,0.0,0.0,83,0.00,CLR,OVC,0.01,WeatherDisplay:10.37,2017-02-23 23:36:00,
2017-02-23 15:41:00,39.4,34.7,30.24,SW,228,0.0,1.0,83,0.00,CLR,OVC,0.01,WeatherDisplay:10.37,2017-02-23 23:41:00,
2017-02-23 15:46:00,39.2,34.2,30.24,SW,228,0.0,0.0,82,0.00,CLR,OVC,0.01,WeatherDisplay:10.37,2017-02-23 23:46:00,
2017-02-23 15:51:00,39.1,34.4,30.24,WSW,253,1.0,3.0,83,0.00,CLR,OVC,0.01,WeatherDisplay:10.37,2017-02-23 23:51:00,
2017-02-23 15:56:00,38.8,34.1,30.24,NNW,328,0.0,0.0,83,0.00,CLR,OVC,0.01,WeatherDisplay:10.37,2017-02-23 23:56:00,
2017-02-23 16:01:00,38.6,34.2,30.24,North,349,0.0,0.0,84,0.00,CLR,OVC,0.01,WeatherDisplay:10.37,2017-02-24 00:01:00,
2017-02-23 16:06:00,38.2,33.5,30.24,NW,324,1.0,2.0,83,0.00,CLR,OVC,0.01,WeatherDisplay:10.37,2017-02-24 00:06:00,
2017-02-23 16:11:00,37.9,33.2,30.24,SW,228,0.0,2.0,83,0.00,CLR,OVC,0.01,WeatherDisplay:10.37,2017-02-24 00:11:00,
2017-02-23 16:16:00,37.8,32.5,30.24,SW,215,0.0,0.0,81,0.00,RA,OVC,0.02,WeatherDisplay:10.37,2017-02-24 00:16:00,
2017-02-23 16:21:00,37.9,31.4,30.24,SW,215,0.0,0.0,77,0.00,RA,OVC,0.02,WeatherDisplay:10.37,2017-02-24 00:21:00,
2017-02-23 16:26:00,38.0,31.1,30.24,SW,214,0.0,0.0,76,0.00,,OVC,0.02,WeatherDisplay:10.37,2017-02-24 00:26:00,
2017-02-23 16:31:00,37.9,31.3,30.24,SSW,213,0.0,0.0,77,0.00,,OVC,0.02,WeatherDisplay:10.37,2017-02-24 00:31:00,
2017-02-23 16:36:00,37.7,31.2,30.24,SSW,197,1.0,2.0,77,0.00,RA,OVC,0.03,WeatherDisplay:10.37,2017-02-24 00:36:00,
2017-02-23 16:41:00,37.7,30.8,30.24,ESE,119,0.0,1.0,76,0.00,RA,OVC,0.03,WeatherDisplay:10.37,2017-02-24 00:41:00,
2017-02-23 16:46:00,37.5,30.3,30.24,East,94,1.0,2.0,75,0.00,,OVC,0.03,WeatherDisplay:10.37,2017-02-24 00:46:00,
2017-02-23 16:51:00,37.3,30.4,30.24,East,94,0.0,0.0,76,0.00,,OVC,0.03,WeatherDisplay:10.37,2017-02-24 00:51:00,
2017-02-23 16:56:00,37.3,29.8,30.24,East,94,0.0,0.0,74,0.00,,OVC,0.03,WeatherDisplay:10.37,2017-02-24 00:56:00,
2017-02-23 17:01:00,37.1,29.6,30.24,East,94,0.0,0.0,74,0.00,,OVC,0.03,WeatherDisplay:10.37,2017-02-24 01:01:00,
2017-02-23 17:06:00,37.0,29.5,30.24,East,94,0.0,1.0,74,0.00,,OVC,0.03,WeatherDisplay:10.37,2017-02-24 01:06:00,
2017-02-23 17:11:00,36.9,28.7,30.24,SSE,158,0.0,0.0,72,0.00,,OVC,0.03,WeatherDisplay:10.37,2017-02-24 01:11:00,
2017-02-23 17:16:00,36.9,28.0,30.24,SSW,194,0.0,0.0,70,0.00,,OVC,0.03,WeatherDisplay:10.37,2017-02-24 01:16:00,
2017-02-23 17:21:00,36.9,27.7,30.24,SSW,194,1.0,2.0,69,0.00,,OVC,0.03,WeatherDisplay:10.37,2017-02-24 01:21:00,
2017-02-23 17:26:00,36.8,27.2,30.24,SSW,194,0.0,0.0,68,0.00,,OVC,0.03,WeatherDisplay:10.37,2017-02-24 01:26:00,
2017-02-23 17:31:00,36.7,27.5,30.23,SSW,194,0.0,0.0,69,0.00,,OVC,0.03,WeatherDisplay:10.37,2017-02-24 01:31:00,
2017-02-23 17:36:00,36.5,28.6,30.23,SSW,194,0.0,0.0,73,0.00,CLR,OVC,0.03,WeatherDisplay:10.37,2017-02-24 01:36:00,
2017-02-23 17:41:00,36.1,28.6,30.23,SSW,194,0.0,0.0,74,0.00,CLR,OVC,0.03,WeatherDisplay:10.37,2017-02-24 01:41:00,
2017-02-23 17:46:00,35.8,28.9,30.23,SSW,194,0.0,0.0,76,0.00,CLR,OVC,0.03,WeatherDisplay:10.37,2017-02-24 01:46:00,
2017-02-23 17:51:00,35.4,28.9,30.23,SSW,194,0.0,0.0,77,0.00,CLR,OVC,0.03,WeatherDisplay:10.37,2017-02-24 01:51:00,
2017-02-23 17:56:00,35.0,28.5,30.23,SSW,194,0.0,0.0,77,0.00,CLR,OVC,0.03,WeatherDisplay:10.37,2017-02-24 01:56:00,